Location: Saluda
(35.2377°N, 82.3468°W)
Time: 17:02:27
(UTC+00:00)

Transit 2A - Pass Details

Date: 03 October 2022
Orbit: 598 x 959 km, 66.7° (Epoch: 06 December)

Event Time Altitude Azimuth Distance (km) Brightness Sun altitude
Rises 14:21:06 0° 320° (NW) 3,032 8.6 32.8°
Reaches altitude 10° 14:23:34 10° 309° (NW) 2,167 7.9 33.2°
Maximum altitude 14:27:49 30° 249° (WSW) 1,329 7.2 33.9°
Drops below altitude 10° 14:32:26 10° 190° (S) 2,362 9.0 34.7°
Sets 14:35:14 0° 180° (S) 3,354 9.8 35.1°
